GFSGBSN_sfc_wetblb_159.txt.gz
Wetbulb
61.48 61.23 61.02 61.37 61.07 60.58 60.35 59.82 59.84 59.51 59.22 59.12 59.09 59.25 59.15 58.79 58.78 58.96 58.81 58.51 58.15 57.79 57.75 57.87 58.76 59.72 62.46 62.74 61.53 64.94 70.69 69.13 62.14 61.13 60.33 64.65 64.30 62.08 59.46 62.62 64.72 64.37 64.99 66.17 66.71 65.78 64.47
61.51 61.59 61.54 61.02 61.10 60.61 60.44 59.96 59.58 59.27 59.41 58.97 58.82 58.86 59.31 59.02 58.58 58.70 58.48 57.82 57.49 57.32 57.53 58.01 59.15 59.68 63.55 59.73 66.85 63.16 61.09 62.14 61.20 59.33 59.41 63.19 64.01 62.03 60.43 63.17 63.47 66.12 66.24 65.77 66.28 65.36 64.40
61.56 61.36 61.39 61.04 60.75 60.29 60.19 60.23 60.06 59.53 59.16 58.97 58.78 58.57 58.86 58.90 58.38 58.15 57.65 57.08 56.95 57.13 57.50 58.34 60.00 62.77 63.50 61.07 65.98 65.95 62.83 61.12 60.85 60.00 58.93 64.23 63.52 60.60 62.95 64.05 67.47 66.63 63.59 65.20 65.45 65.61 62.12
61.49 61.31 61.15 61.04 60.52 60.18 59.91 60.13 60.01 59.58 58.95 58.80 58.65 58.26 58.70 58.57 58.08 57.36 56.88 56.20 56.65 57.80 57.88 58.83 60.52 64.46 61.47 64.82 66.24 62.53 62.75 61.56 61.72 61.63 60.94 63.95 63.19 60.37 63.51 67.49 66.00 62.58 63.31 56.69 64.50 64.89 64.50
61.42 61.28 61.14 61.04 60.74 60.15 59.87 59.95 60.00 59.48 59.11 58.64 58.25 58.17 58.29 58.24 57.52 56.78 55.85 56.30 58.72 59.06 59.15 60.42 63.87 64.82 60.45 65.46 61.71 62.16 60.76 58.94 60.49 60.28 60.98 61.38 59.77 59.48 64.42 62.60 60.92 61.82 54.55 57.33 60.92 65.71 64.19
61.44 61.16 60.71 60.62 60.22 59.65 59.70 59.69 59.67 59.42 59.12 58.71 58.17 57.83 57.97 57.47 56.61 55.59 55.34 57.06 59.15 59.76 62.00 65.09 65.19 61.30 60.73 58.91 61.01 60.16 60.26 59.52 58.38 58.04 58.87 58.92 58.23 58.33 60.14 59.09 50.29 50.46 56.72 58.16 57.56 63.24 63.63
61.46 61.18 60.82 60.49 60.21 59.48 59.37 59.39 59.56 59.44 59.34 59.05 58.21 57.90 57.54 56.99 55.77 54.71 56.67 64.21 63.22 62.09 64.35 60.70 60.33 59.60 59.65 60.09 60.86 59.25 58.96 58.13 57.21 56.12 54.78 57.27 54.62 54.14 57.29 59.34 59.12 59.65 55.16 56.01 60.10 64.17 62.04
61.25 60.92 60.67 60.27 59.74 59.43 59.13 59.07 58.92 59.03 59.09 58.93 58.04 57.81 57.08 56.06 55.08 54.55 58.42 60.81 60.46 60.05 56.66 61.11 60.36 60.18 61.11 60.18 55.92 58.42 60.38 55.85 54.61 52.15 55.14 53.86 51.57 55.92 58.34 58.27 58.87 57.92 56.61 54.93 58.81 63.22 62.91
60.40 60.27 59.99 59.60 59.48 59.19 58.96 58.81 58.66 58.62 58.64 58.52 57.97 57.53 56.40 55.02 54.14 57.50 61.61 61.25 63.59 62.51 57.21 59.02 59.74 59.04 59.61 60.05 56.83 57.00 58.86 56.89 53.89 52.42 52.77 51.57 53.02 55.62 54.34 55.08 56.29 56.98 55.49 54.81 54.56 59.54 62.51
59.52 59.44 59.31 59.00 58.77 58.83 58.63 58.62 58.50 58.48 58.25 57.95 57.92 57.10 55.59 53.15 56.35 63.66 59.02 63.53 63.49 62.82 54.24 56.42 57.46 58.74 60.45 59.95 56.29 60.29 59.71 56.99 53.71 51.82 53.00 52.06 54.32 52.40 52.88 52.33 55.03 53.52 57.16 56.41 54.65 56.11 50.80
58.56 58.49 59.02 58.16 58.27 58.17 58.26 58.28 58.06 58.11 57.82 57.34 57.32 56.39 54.47 52.63 60.76 61.06 61.59 63.10 62.80 61.45 47.00 57.24 57.28 62.59 60.50 57.90 58.51 56.74 60.00 57.33 52.68 51.49 52.25 50.87 51.16 51.24 50.44 51.32 55.04 53.90 57.94 55.47 54.70 55.22 54.71
58.03 58.45 58.43 57.92 57.72 57.73 57.74 57.80 57.59 57.56 57.50 56.92 56.25 54.94 53.54 59.53 62.01 63.94 64.17 62.53 61.16 52.36 46.22 54.74 57.58 56.76 56.70 57.28 56.73 57.11 56.24 58.37 56.98 53.34 52.94 52.36 54.89 52.71 51.85 52.73 53.64 55.91 55.89 56.20 56.41 55.20 50.85
57.46 57.56 57.52 57.16 57.12 57.08 57.43 57.78 57.79 57.41 56.73 55.79 54.41 53.06 53.52 60.96 62.35 63.91 62.94 59.24 50.75 47.05 55.85 54.37 54.72 56.19 55.35 54.75 55.12 54.92 53.31 52.77 51.24 48.67 49.85 51.26 52.62 54.20 54.55 51.54 52.97 53.87 53.41 49.50 48.23 48.60 49.11
56.99 56.86 57.24 57.09 56.88 57.13 57.80 58.15 57.67 57.07 56.09 54.67 52.50 51.35 57.63 61.30 64.65 63.47 60.62 54.02 47.01 51.52 52.28 56.80 56.42 55.63 53.09 55.22 54.95 54.44 53.76 51.99 53.93 53.12 51.29 49.09 47.05 52.38 54.17 52.42 50.66 52.05 53.33 49.43 44.68 46.16 49.24
56.21 56.53 56.36 56.66 56.72 56.99 57.56 57.91 57.23 56.49 55.26 53.49 51.38 63.45 62.42 64.34 64.11 63.12 56.46 48.90 50.48 53.22 53.98 53.09 55.34 53.26 53.05 54.60 54.54 54.49 53.74 53.35 54.71 54.07 50.52 49.98 49.65 54.27 54.21 55.18 56.00 51.62 51.15 55.15 51.48 53.41 50.47
56.40 56.19 56.38 56.43 56.47 56.69 56.96 57.43 57.05 56.15 54.55 53.00 58.65 61.22 62.06 63.05 63.45 60.75 53.88 47.82 53.55 55.73 54.44 54.64 52.58 54.22 51.80 53.24 53.11 53.95 53.77 55.28 54.25 54.95 55.91 54.01 49.98 53.73 53.38 54.95 55.41 55.73 56.38 50.30 52.24 46.44 45.51
56.52 56.39 56.49 56.37 56.44 56.48 56.73 57.32 56.93 55.26 53.39 52.76 59.30 58.43 61.83 62.87 63.02 57.25 51.11 52.58 54.38 56.67 55.57 53.72 52.89 53.41 54.57 53.88 54.59 53.46 53.67 55.56 56.01 54.94 56.16 55.23 53.62 52.68 54.40 52.15 51.72 52.85 52.27 53.38 53.04 51.70 47.48
55.57 56.19 56.32 56.55 56.27 56.42 56.57 56.80 56.43 54.03 52.04 56.29 60.62 55.79 63.22 62.73 54.23 55.31 53.10 54.93 50.28 55.37 56.36 54.88 54.79 54.89 54.57 54.80 54.12 54.30 53.72 55.43 57.33 56.70 53.34 55.63 53.82 51.48 52.24 55.60 56.36 56.36 53.64 53.32 49.15 49.16 51.31
54.74 55.92 56.21 56.46 56.82 56.52 56.55 56.54 55.89 53.73 52.82 57.48 57.73 58.06 62.96 61.19 51.56 53.35 55.43 53.77 54.74 54.43 54.60 54.38 53.00 54.03 55.91 54.20 52.78 54.43 54.99 57.57 57.73 56.47 54.94 55.57 52.32 49.18 50.28 54.51 56.05 53.32 54.63 54.94 54.70 54.33 51.30
54.66 55.08 55.63 56.43 56.87 57.67 57.36 56.43 55.55 53.97 53.36 55.92 57.97 54.78 59.35 60.02 58.60 55.42 54.76 53.21 53.52 55.07 54.01 54.84 54.12 54.37 52.89 53.52 55.76 54.54 54.86 56.24 57.19 57.46 61.08 60.22 53.97 51.86 48.91 51.90 54.35 52.67 52.85 54.37 53.53 50.32 50.84
53.73 54.33 54.58 56.11 56.37 57.51 57.62 57.01 55.52 54.05 53.37 56.05 59.33 57.07 57.40 55.04 57.29 55.99 55.88 54.96 53.11 53.09 55.31 56.38 53.58 53.54 52.29 50.79 53.27 53.70 55.71 56.41 56.74 60.19 57.73 56.32 52.46 53.83 54.10 54.76 55.48 54.69 53.46 53.76 53.15 53.71 51.63
52.68 53.09 53.98 55.33 55.98 57.05 57.50 57.52 56.07 54.17 52.71 58.37 54.92 55.52 58.25 55.70 56.21 54.57 51.73 53.20 53.13 54.47 54.94 54.23 53.94 55.03 55.07 52.90 53.46 53.14 54.82 55.65 55.24 57.40 57.32 57.20 52.76 53.94 52.70 55.00 54.92 53.00 53.85 54.23 54.52 54.98 54.53
52.26 52.75 54.07 54.86 55.03 56.19 57.14 57.54 56.21 54.29 53.30 58.31 59.33 59.49 56.21 52.92 54.28 53.27 53.32 53.60 52.62 54.55 55.56 56.53 55.74 55.87 54.34 55.28 57.81 58.39 58.81 58.93 58.59 57.37 57.32 56.57 54.62 53.21 49.08 54.52 53.92 49.98 53.16 54.02 54.50 55.51 55.47
52.18 53.01 54.19 54.00 54.45 55.50 56.83 57.81 56.92 55.38 53.76 58.25 57.90 56.73 53.50 50.84 52.93 52.68 53.56 53.00 52.56 53.94 53.00 55.01 56.08 55.28 58.13 60.14 59.31 58.50 58.01 57.54 57.87 57.90 58.49 56.59 55.91 54.27 50.20 52.16 45.58 54.47 57.09 56.33 54.66 55.64 57.25
52.01 53.11 53.35 53.25 54.11 55.18 56.61 57.84 57.24 56.26 55.28 57.25 58.46 55.71 52.38 49.97 52.83 52.66 52.61 52.82 53.91 54.91 53.43 53.35 54.85 56.92 58.25 56.01 52.26 51.46 52.20 53.60 54.34 55.46 56.72 57.95 55.82 52.55 49.34 48.96 51.97 53.73 55.48 55.64 54.40 53.61 57.88
52.63 52.53 53.43 53.82 54.32 54.71 56.15 57.84 57.27 56.51 55.41 57.02 56.42 58.87 54.69 49.52 53.28 53.99 52.53 53.26 51.68 52.12 53.28 54.68 57.60 58.70 57.21 54.08 52.01 47.65 46.72 50.54 50.17 52.24 56.89 56.61 57.04 53.25 51.14 47.87 43.94 54.00 57.32 58.77 57.56 51.76 58.64
52.20 52.33 52.81 53.39 53.91 54.32 55.61 57.01 56.86 56.40 55.71 56.12 56.91 59.30 54.99 50.31 53.73 53.51 50.69 51.08 54.32 53.62 51.96 53.93 54.29 54.40 56.61 51.55 48.66 47.72 48.09 53.18 48.02 49.37 50.76 52.53 53.32 50.84 50.22 48.59 52.27 57.21 57.23 59.16 50.57 52.32 59.57
51.68 51.93 52.24 52.68 53.59 53.91 54.55 56.08 56.04 56.06 55.62 55.57 56.30 59.13 54.66 50.23 52.86 54.33 54.67 52.39 53.05 52.92 50.43 53.11 52.81 53.90 52.19 48.95 48.90 49.78 49.21 51.40 51.75 53.52 52.28 52.16 50.96 50.50 51.99 49.86 47.65 58.46 58.32 54.93 57.31 61.06 60.24
51.47 51.99 52.27 52.43 52.85 53.59 53.91 54.55 56.09 55.73 55.50 55.05 53.00 58.22 58.90 50.97 51.01 54.92 55.46 56.92 56.21 56.13 53.60 54.17 53.06 52.14 53.55 52.68 53.08 52.05 49.43 52.57 53.29 49.06 57.04 50.81 53.94 52.28 53.65 53.47 61.88 61.76 59.71 61.64 60.77 61.47 61.12

GFSGBSN_sfc_wetblb_162.txt.gz
Wetbulb
61.88 61.83 61.68 61.34 60.80 60.50 60.62 60.36 59.89 59.60 59.97 59.70 59.30 58.90 59.11 59.32 59.24 59.21 59.07 58.95 58.59 58.56 58.56 58.83 58.80 59.62 61.33 61.52 62.37 61.94 71.38 69.58 62.23 60.67 61.98 61.84 63.39 62.72 58.53 62.16 64.29 62.50 64.76 66.08 66.25 65.84 66.20
61.94 61.78 61.82 61.29 61.07 60.81 60.66 60.66 59.94 60.03 59.57 59.34 58.92 58.74 58.76 59.23 59.16 58.83 58.72 58.47 57.96 57.87 58.31 58.66 59.00 59.72 61.67 59.00 64.46 60.79 59.89 60.60 61.06 59.97 60.43 62.20 64.14 63.30 59.45 61.52 63.62 64.16 65.48 65.30 65.17 64.78 64.61
61.77 61.69 61.51 61.30 61.00 60.73 60.50 60.55 60.35 59.75 59.69 59.50 58.86 58.76 58.62 58.90 59.08 58.51 57.85 57.35 57.46 57.74 58.19 58.80 59.29 62.03 62.37 62.59 66.26 62.71 60.41 60.79 61.89 60.41 58.64 61.45 64.55 61.42 61.06 62.11 66.56 65.87 62.77 61.05 64.60 64.54 63.31
61.61 61.34 61.10 60.67 60.40 59.92 60.00 60.05 60.04 59.98 59.80 59.03 58.84 58.62 58.52 58.92 58.73 58.13 57.14 56.55 57.18 58.16 58.66 58.95 59.82 63.28 61.89 65.77 66.13 64.06 62.43 60.22 61.24 61.53 60.70 62.43 65.27 61.99 59.33 65.96 62.89 63.39 61.02 54.39 63.46 63.55 62.89
61.66 61.33 60.94 60.46 60.09 59.53 59.28 59.44 59.62 59.42 59.47 59.17 58.79 58.58 58.76 58.72 58.06 57.01 55.99 56.32 59.21 60.07 59.92 59.61 61.34 62.52 60.52 66.59 60.34 62.79 62.04 59.54 59.85 60.51 61.27 62.24 61.80 59.33 59.16 61.06 59.37 57.55 53.10 52.98 58.65 63.46 61.82
61.47 60.97 60.94 60.51 60.05 59.56 59.26 59.29 59.33 59.24 59.43 59.24 58.98 58.44 58.36 58.01 57.09 56.03 55.28 56.62 59.76 59.22 60.39 63.80 63.96 60.97 63.56 59.55 61.21 61.54 60.35 60.22 58.34 57.71 57.46 58.15 58.87 56.34 55.95 56.46 51.52 51.15 52.33 53.58 55.50 60.18 62.52
61.07 60.88 60.92 60.40 59.87 59.51 59.28 59.29 59.36 59.38 59.17 59.10 58.78 58.22 57.75 57.19 56.28 54.88 56.27 63.02 61.64 60.35 64.24 59.70 61.22 60.24 60.44 60.41 61.47 58.77 59.64 57.60 58.19 55.74 51.95 56.67 54.67 52.01 54.56 57.59 59.18 57.20 53.30 54.31 56.36 63.84 60.57
60.20 60.19 60.09 59.70 59.50 59.14 58.99 59.00 58.89 58.81 58.94 58.42 57.89 57.74 57.28 56.58 55.43 54.72 56.41 59.77 61.38 61.13 56.19 62.34 62.41 61.57 61.40 59.94 55.38 57.87 58.78 54.72 54.41 51.08 53.05 54.01 51.21 55.02 56.71 57.82 58.35 58.90 55.06 55.26 60.97 62.75 61.24
59.27 59.08 59.07 58.98 58.60 58.38 58.41 58.48 58.29 58.32 58.00 57.90 57.45 57.18 56.67 55.57 54.47 56.99 59.32 61.18 64.14 63.03 56.47 58.59 60.75 59.31 59.90 59.70 55.88 56.55 57.31 55.97 53.08 50.90 52.29 51.33 53.22 55.30 54.64 54.54 55.07 56.99 56.57 56.21 55.30 59.83 61.95
58.57 58.45 58.40 58.35 57.97 57.77 57.70 57.86 58.09 57.92 57.81 57.49 57.51 57.10 55.93 53.57 56.82 63.47 60.97 62.50 63.56 63.08 52.96 55.19 57.37 58.46 59.95 59.54 55.91 60.32 59.75 56.74 54.69 51.52 52.51 52.38 54.64 53.30 52.97 52.31 54.25 51.74 57.16 57.76 55.66 54.14 52.06
57.76 57.69 57.59 57.46 57.32 57.30 57.36 57.48 57.96 57.92 57.65 57.37 57.17 56.30 54.88 53.62 59.14 60.85 63.12 63.45 62.92 60.94 44.74 57.02 57.75 62.40 60.20 57.15 58.36 57.25 60.51 57.20 52.89 52.09 52.47 51.02 51.66 51.09 50.80 51.72 53.83 52.39 57.19 56.72 55.83 53.74 53.84
57.60 57.32 57.52 57.59 57.40 57.17 57.04 57.29 57.81 57.65 57.22 57.00 56.44 55.28 53.91 59.11 59.48 63.46 65.21 63.79 60.04 51.12 45.13 55.05 57.56 56.11 56.05 57.00 57.37 57.66 56.86 58.03 57.26 53.32 52.83 51.76 55.18 53.05 51.97 53.34 53.06 54.93 55.13 56.02 55.77 53.39 47.94
57.19 57.19 57.16 56.94 57.02 56.94 57.01 56.96 57.54 57.19 56.51 56.05 54.66 53.39 53.41 60.17 60.25 65.13 63.69 58.95 49.46 45.86 55.36 54.24 54.53 56.19 54.88 54.66 55.29 55.27 53.32 52.32 50.80 48.18 49.11 51.33 51.07 54.15 53.49 50.26 52.37 51.48 50.61 46.33 46.71 47.25 46.90
56.93 56.64 56.65 56.58 56.37 56.46 56.67 56.74 57.00 56.71 56.35 55.00 52.80 51.72 56.98 61.42 64.52 64.42 61.69 52.93 45.22 51.41 51.59 55.94 56.72 55.77 52.68 54.88 54.54 54.47 52.84 50.73 53.35 52.32 50.03 48.85 46.46 51.31 54.08 51.85 50.51 49.81 49.80 46.76 44.38 46.08 47.12
56.91 56.89 56.83 56.56 56.26 56.27 56.35 56.30 56.07 56.39 55.77 53.90 51.88 62.33 62.89 64.79 63.94 63.63 57.55 47.85 49.09 52.39 55.57 54.21 54.61 53.60 52.95 54.17 54.37 53.99 53.29 52.81 54.30 54.11 49.41 49.23 49.80 54.30 54.38 54.16 53.20 50.38 48.16 52.81 49.56 51.57 46.29
56.21 56.50 56.68 56.56 56.19 56.04 56.12 56.15 55.87 56.25 55.20 53.41 56.67 60.93 62.01 64.80 63.92 60.77 54.55 47.60 52.65 55.80 56.73 54.86 50.76 54.51 51.73 53.20 52.86 53.32 53.40 55.56 54.33 56.08 56.12 52.74 48.90 53.00 53.56 54.12 54.16 53.69 54.31 48.39 50.11 45.52 43.48
55.41 55.78 56.39 56.65 56.64 56.97 56.65 56.49 56.26 55.83 53.97 52.91 58.58 59.63 62.54 64.22 62.90 57.41 50.67 52.16 54.32 56.77 56.86 54.17 52.76 52.54 53.97 53.31 54.15 53.36 53.28 55.75 56.53 55.59 56.05 53.41 52.16 52.80 54.64 51.19 50.14 51.42 52.06 52.84 52.54 51.34 46.90
54.89 55.66 56.12 56.17 56.52 57.10 57.48 57.08 56.17 54.70 52.53 55.91 59.47 56.38 63.94 63.26 54.62 55.73 52.91 54.75 52.57 55.79 57.54 56.01 55.17 54.02 53.40 54.41 54.68 54.28 53.91 55.50 57.92 56.65 52.65 54.03 52.18 50.31 52.73 54.60 54.91 53.88 53.19 53.29 48.50 49.32 50.83
54.27 55.32 55.71 55.87 56.35 56.89 57.40 56.79 55.75 54.28 53.20 55.43 56.25 58.73 63.59 61.98 51.55 53.57 56.12 54.90 55.31 54.58 54.85 54.75 54.16 54.89 55.12 53.79 52.60 54.68 55.40 58.56 58.06 56.59 54.51 55.58 51.51 47.51 49.39 53.74 54.70 52.10 53.76 54.64 53.49 52.97 50.92
53.49 53.89 54.40 55.45 56.07 56.49 57.02 56.43 55.79 54.66 53.91 55.39 56.60 54.61 59.13 60.25 58.95 55.46 54.23 54.88 54.39 55.88 54.59 55.02 54.83 55.72 54.27 52.38 54.39 53.63 54.63 56.87 58.10 57.47 62.53 59.83 52.95 50.90 46.78 50.84 53.70 52.79 52.60 53.84 52.76 49.93 50.52
53.02 53.43 53.83 55.29 55.90 56.11 56.66 56.40 56.23 54.74 53.71 55.75 58.56 56.20 58.33 53.96 56.67 57.17 57.07 55.63 53.66 53.78 57.20 55.72 54.13 53.68 52.74 50.85 51.46 51.93 54.73 56.10 57.60 61.29 58.32 55.93 51.15 52.89 53.31 54.46 54.01 53.29 53.77 54.29 51.51 52.59 50.25
52.63 52.91 53.73 55.54 55.30 55.77 56.46 56.72 56.57 54.88 53.05 57.96 56.20 54.63 56.63 54.81 55.84 54.70 52.71 53.89 52.27 53.92 55.09 54.42 54.11 54.80 54.79 52.12 53.00 51.57 53.32 55.45 55.20 57.04 56.06 56.15 52.95 53.06 51.17 53.47 53.65 51.89 54.17 53.98 53.28 54.01 53.69
52.24 52.80 53.66 54.62 54.26 55.01 56.23 56.74 57.10 55.06 53.75 57.37 58.56 58.63 55.83 52.17 53.39 52.43 53.04 53.66 53.50 55.43 55.64 56.61 56.04 55.63 54.89 55.88 57.81 58.08 58.22 57.94 57.60 56.35 55.58 55.57 54.23 53.17 49.19 52.38 51.80 46.15 52.36 54.86 54.99 55.90 55.30
52.35 52.62 53.34 53.93 53.99 54.75 56.01 56.91 57.81 56.34 54.45 56.45 57.65 56.63 52.44 49.59 52.21 52.50 53.74 54.36 53.64 54.38 53.12 55.47 56.58 54.68 57.22 60.29 59.91 58.67 57.62 57.15 57.31 57.48 58.28 56.28 55.66 55.35 50.20 52.43 45.26 53.27 57.37 57.19 54.70 55.40 55.98
52.37 53.38 53.06 54.04 54.29 54.62 55.39 56.93 58.15 57.17 55.53 56.38 58.00 55.60 53.08 49.00 52.16 52.20 53.15 53.45 54.26 54.79 53.52 53.92 55.26 57.00 58.71 56.56 52.49 50.81 51.27 52.35 53.94 55.84 56.38 57.31 55.95 52.41 49.19 48.08 52.10 53.22 55.03 55.98 54.22 54.09 56.88
52.24 52.69 52.83 53.37 53.77 54.43 54.77 56.10 57.37 57.25 56.11 56.38 56.33 58.36 54.66 50.14 52.18 53.20 51.79 53.46 51.42 51.58 52.51 54.16 57.52 59.24 57.34 53.36 50.50 45.65 43.87 48.02 48.36 51.57 55.80 55.24 56.76 53.50 51.39 46.98 44.22 54.10 57.43 58.85 58.26 51.01 58.02
51.71 52.19 52.48 52.87 53.33 54.10 54.48 55.13 56.52 56.61 56.02 55.48 55.54 58.30 53.61 50.01 53.53 54.04 51.45 51.13 54.02 52.92 51.44 53.91 54.38 53.79 56.98 51.11 47.80 46.44 46.12 51.36 46.73 47.87 51.20 51.95 52.80 50.95 50.39 49.15 50.92 57.38 58.27 58.41 47.69 50.84 59.62
51.74 51.96 52.44 52.73 52.79 53.46 53.94 54.49 55.19 56.37 56.26 55.43 54.57 59.09 55.22 50.97 52.73 54.07 54.41 52.18 52.75 52.56 49.52 52.53 51.65 53.42 52.69 48.60 48.07 48.11 47.46 49.57 49.54 52.57 52.26 51.41 51.31 50.87 52.59 49.61 47.71 59.41 58.58 53.58 57.46 60.25 60.19
51.33 51.60 52.39 52.75 52.75 52.98 53.58 53.98 54.49 55.36 55.99 55.03 52.62 58.16 57.98 52.17 51.99 55.11 55.13 56.08 55.30 54.97 52.93 53.54 51.18 52.15 53.23 50.63 51.42 52.25 50.55 52.27 51.16 47.07 55.53 47.22 53.34 52.95 52.83 53.64 61.00 62.49 60.35 59.85 60.05 62.38 61.94

GFSGBSN_sfc_wetblb_165.txt.gz
Wetbulb
62.08 61.95 61.34 61.29 60.71 60.12 59.90 59.76 59.82 60.11 59.60 59.46 59.16 59.07 58.79 58.70 59.17 59.44 59.36 59.22 58.95 58.87 58.75 59.02 59.32 59.48 58.65 57.14 57.18 64.18 71.68 70.53 63.79 59.08 58.83 59.19 57.69 58.08 56.58 59.93 64.11 62.01 63.31 65.03 65.66 65.57 65.05
61.93 61.59 61.03 60.22 60.16 59.89 59.50 59.35 59.48 59.81 59.65 59.74 59.19 58.91 58.79 58.68 59.46 59.55 59.18 58.54 58.13 58.12 58.55 58.81 59.29 59.54 56.78 54.06 60.66 61.63 61.21 59.45 58.70 57.55 56.55 57.57 58.13 60.50 57.70 59.62 61.78 63.60 64.19 64.47 65.13 64.39 63.94
61.70 61.33 60.35 60.15 59.47 59.62 59.44 58.91 59.20 59.41 59.19 59.12 59.07 59.11 59.23 59.37 59.54 59.33 58.67 57.71 57.46 57.85 58.40 58.91 59.53 60.13 58.55 58.84 59.43 58.60 56.73 55.72 57.23 57.74 55.40 57.78 58.75 57.35 57.72 56.33 66.26 63.99 59.45 60.61 62.44 63.73 62.70
61.52 61.22 60.50 59.47 59.19 59.03 59.12 59.15 58.92 59.16 59.24 59.32 59.79 59.59 59.44 59.26 59.12 58.56 57.61 56.84 57.21 58.85 58.85 59.22 59.54 59.41 55.84 66.00 64.15 57.79 56.60 56.84 58.54 58.56 57.54 57.64 58.68 58.83 56.15 60.89 62.58 60.47 59.14 53.68 60.53 63.17 62.86
60.90 61.00 60.74 60.31 59.88 58.63 58.49 58.58 59.03 59.30 59.12 59.09 59.17 58.93 58.79 58.74 58.35 57.42 56.35 56.01 58.20 60.87 59.87 60.07 56.81 56.50 56.39 65.96 59.06 59.69 60.30 56.52 55.74 56.25 56.85 60.30 56.89 54.22 55.78 51.66 56.67 56.99 50.63 52.75 56.84 60.37 61.67
60.43 60.33 60.25 59.96 59.62 59.29 58.72 58.61 58.84 58.87 58.90 58.44 57.98 57.64 57.59 58.01 57.43 56.25 55.38 55.93 60.59 58.42 59.47 60.62 61.39 55.38 60.69 59.94 60.85 59.22 58.66 58.84 56.11 54.38 55.06 54.25 52.13 50.01 50.68 47.02 43.67 52.61 52.02 54.17 54.14 59.99 61.20
59.72 59.67 59.57 59.53 58.84 58.57 58.34 58.34 58.41 58.75 58.69 57.75 57.49 57.26 57.41 57.17 56.59 55.27 54.27 56.23 56.65 55.15 59.03 56.39 56.89 57.88 60.29 62.14 60.54 57.33 56.02 55.28 55.08 52.32 46.51 50.85 46.24 46.03 49.92 51.79 57.14 55.89 53.30 52.99 55.38 59.00 58.09
59.08 58.83 58.81 58.65 58.29 58.12 58.04 58.02 57.96 58.37 58.45 57.63 57.38 57.48 57.28 56.55 55.84 55.07 52.39 53.66 57.79 57.98 51.70 60.58 60.77 59.99 61.64 57.49 53.81 55.77 56.50 50.66 50.60 47.31 48.92 46.43 44.89 51.95 54.40 57.75 56.35 55.06 52.87 53.11 56.62 59.57 58.45
58.22 58.09 58.02 57.85 57.69 57.55 57.57 57.52 57.63 58.03 58.03 57.73 57.70 57.30 56.63 55.72 54.95 54.39 55.49 55.74 60.25 58.64 51.11 54.85 57.60 59.71 59.95 55.99 53.48 53.34 53.10 51.95 50.06 47.97 47.70 44.74 48.87 54.46 52.90 51.89 55.16 53.73 52.83 55.24 55.44 58.53 59.67
58.01 57.64 57.54 57.54 57.46 57.30 57.27 57.29 57.50 57.79 57.71 57.35 57.36 57.03 55.96 54.07 55.07 58.02 58.24 61.72 60.35 59.21 46.40 51.63 53.39 57.16 60.14 57.26 52.85 57.64 55.19 52.61 51.17 47.52 48.08 47.16 51.89 51.81 50.35 49.07 52.06 44.36 57.54 58.62 56.75 54.05 48.19
57.47 57.11 57.05 56.97 56.80 56.82 56.71 56.86 57.03 57.21 57.13 56.99 56.93 56.39 54.81 53.62 54.09 56.27 60.33 62.56 59.65 55.92 38.59 55.91 55.06 60.23 56.83 53.74 54.02 55.38 57.11 53.37 49.78 50.01 47.18 46.87 48.91 48.65 47.51 48.65 49.90 48.09 53.19 54.97 55.33 50.20 45.37
57.15 56.99 56.96 56.93 56.83 56.52 56.39 56.26 56.27 56.41 56.49 56.55 56.39 55.36 54.06 56.53 54.04 58.04 61.84 62.84 57.64 45.07 41.31 53.02 55.82 53.76 52.76 53.79 54.59 55.39 54.83 54.43 54.37 50.87 49.85 48.32 51.61 48.94 48.80 50.56 50.59 51.62 49.00 50.88 52.50 48.07 39.72
57.07 57.02 56.90 56.90 56.88 56.30 56.09 55.98 56.13 55.99 55.84 55.82 54.87 53.67 52.65 56.33 55.55 60.58 60.68 57.18 43.44 40.71 53.61 52.11 51.90 53.38 52.37 51.91 53.08 52.36 51.40 48.25 45.64 41.07 42.88 48.21 48.20 49.70 51.42 45.72 47.73 47.15 40.26 37.23 37.50 38.49 42.95
57.02 56.79 56.57 56.50 56.44 56.25 56.06 56.12 55.99 55.80 55.70 55.09 53.31 51.81 53.94 56.01 59.03 59.24 57.37 49.96 40.08 48.78 48.03 52.36 53.74 53.35 50.60 52.16 52.37 52.75 49.72 46.44 49.51 47.87 44.88 42.58 42.34 47.74 50.89 47.25 44.25 43.92 41.43 36.87 34.40 39.82 44.16
56.26 56.09 56.34 56.28 56.23 56.39 56.63 56.57 56.18 55.96 55.48 54.14 51.99 58.34 59.10 60.90 59.69 60.26 54.00 44.18 45.01 49.26 52.70 52.26 52.76 50.86 50.22 52.05 51.65 51.29 49.63 48.43 49.96 49.59 42.92 41.61 44.69 52.60 50.94 50.88 48.63 44.83 40.53 44.41 40.74 45.73 44.46
55.91 55.92 56.18 56.27 56.03 56.19 56.57 56.57 56.26 56.02 54.99 53.56 52.58 56.13 59.46 63.31 62.75 58.20 50.98 44.75 49.18 53.27 53.89 53.16 48.24 50.48 48.19 50.38 49.79 49.36 49.36 52.43 51.89 53.63 51.53 47.77 42.69 48.44 51.45 51.28 50.06 45.44 48.35 40.66 39.55 36.94 38.73
55.42 55.78 55.89 56.07 55.93 56.11 56.51 56.63 55.96 55.48 54.08 52.93 54.04 56.01 61.22 62.62 60.68 54.33 46.77 48.77 52.28 55.18 55.40 52.66 50.90 49.95 50.14 49.59 51.10 50.37 50.56 53.43 54.65 53.84 52.91 49.99 45.26 46.43 52.06 46.01 44.78 44.69 43.62 45.93 44.63 44.53 40.25
54.70 54.68 54.82 55.30 55.48 56.11 56.23 56.33 55.48 54.64 52.92 54.00 55.42 53.21 61.59 61.95 51.80 52.41 49.28 52.06 51.39 54.13 55.95 54.29 54.00 52.02 50.53 50.97 49.53 50.19 51.12 53.78 56.75 55.36 49.58 49.93 45.08 42.29 48.43 53.27 51.75 48.96 45.26 46.34 41.53 41.21 43.75
53.49 53.74 54.62 55.15 55.53 55.85 56.05 55.78 54.99 54.40 53.59 51.76 50.85 54.78 62.42 60.01 47.92 49.57 52.88 53.73 54.81 53.60 53.31 53.02 52.25 53.30 53.45 50.55 47.24 50.63 51.97 56.44 58.15 54.51 50.24 49.29 43.84 39.31 42.77 47.02 51.21 45.82 47.50 46.72 46.73 44.01 43.87
53.21 53.17 54.31 55.07 55.78 55.45 55.85 55.56 54.85 54.73 54.07 52.55 52.12 52.19 57.44 57.76 56.73 52.98 51.50 52.00 51.85 56.66 55.26 53.72 52.55 52.74 51.11 49.94 50.98 49.23 50.80 54.79 56.50 56.00 60.84 55.98 45.71 44.34 40.33 44.98 49.86 49.83 51.10 51.08 49.35 42.00 45.19
52.81 52.94 53.64 55.07 55.26 55.45 55.81 55.62 55.19 54.79 53.89 52.84 55.39 53.81 54.48 50.20 51.68 52.30 52.53 52.62 52.80 51.90 55.29 55.66 53.30 51.98 50.37 46.69 48.56 48.64 51.26 51.66 54.89 60.13 56.04 51.30 44.59 45.71 47.85 52.25 52.38 50.94 51.26 51.32 47.50 50.10 43.27
52.48 52.75 53.53 54.75 54.34 54.61 55.89 55.98 55.88 54.85 53.32 55.22 52.87 51.16 52.82 50.46 52.63 51.19 49.67 50.26 50.91 51.86 51.97 50.97 51.59 54.14 53.24 49.11 49.75 47.89 50.55 49.85 50.70 54.37 53.94 50.83 45.23 46.74 46.54 50.71 52.51 50.27 52.40 52.49 52.60 52.56 50.73
52.34 53.12 54.12 53.82 54.08 54.53 55.63 55.99 56.65 54.95 53.57 53.53 54.32 55.68 52.32 48.56 49.70 48.84 49.46 50.86 51.55 53.01 54.81 55.17 54.13 53.02 52.27 52.92 53.68 54.58 54.49 53.13 51.88 50.13 50.75 50.84 46.89 45.92 42.22 48.59 48.57 46.56 51.13 52.05 52.84 53.13 50.71
52.50 52.98 53.68 53.64 54.04 54.25 55.43 55.53 56.92 56.28 54.67 54.00 54.02 53.88 50.11 45.97 48.33 48.76 50.80 51.81 51.81 52.13 51.57 53.49 54.00 51.61 54.61 56.49 55.62 54.93 54.21 53.80 53.48 52.66 52.24 49.36 50.14 48.54 44.05 46.71 39.90 48.02 54.61 55.69 53.52 55.17 55.25
52.51 53.04 52.99 53.22 53.17 53.65 54.91 54.61 56.73 56.73 55.66 53.46 55.43 53.31 50.66 45.38 48.68 48.94 49.99 50.32 51.80 52.73 52.22 52.59 53.82 54.88 55.91 53.69 48.33 45.99 46.65 48.21 50.51 52.50 51.50 51.21 49.98 45.40 42.41 42.76 46.58 50.15 53.73 52.97 51.37 51.46 56.26
52.20 52.18 52.76 52.91 53.22 53.50 54.37 54.52 55.78 56.51 55.70 54.13 54.49 56.29 52.42 47.06 47.25 49.73 48.65 50.57 48.36 48.50 50.15 52.52 55.42 56.68 55.50 49.95 46.95 41.31 39.94 45.20 45.28 47.69 49.28 51.29 50.06 46.29 44.02 41.37 39.79 49.12 55.33 58.16 55.83 47.56 57.08
52.07 52.26 52.51 52.91 53.24 53.25 53.90 54.33 54.73 55.68 56.07 53.87 53.60 56.50 52.70 47.41 49.73 50.34 47.23 47.25 50.50 49.23 47.51 50.63 50.73 51.45 54.53 48.41 44.35 42.10 41.77 48.37 42.47 42.81 43.61 45.75 47.58 44.52 45.11 43.25 46.99 54.86 56.35 57.50 47.00 47.27 56.80
51.86 51.84 52.19 52.98 53.05 53.18 53.56 53.99 54.37 54.90 55.91 54.24 52.06 55.79 53.67 48.70 49.02 50.44 51.73 48.42 48.56 49.35 46.35 49.61 48.85 51.05 50.27 46.67 45.74 44.57 44.13 45.50 44.74 46.68 45.61 44.57 44.96 45.10 44.35 42.15 40.54 55.78 56.17 49.98 52.90 55.50 57.17
51.48 51.44 51.73 52.53 52.84 53.22 53.27 53.37 53.72 54.25 55.02 55.26 50.52 54.73 55.77 51.01 49.02 53.09 52.89 53.23 51.90 51.41 49.53 49.94 48.75 48.89 50.64 47.23 47.88 47.10 44.68 47.88 46.56 43.19 51.54 45.99 47.58 46.60 47.87 47.34 53.14 56.35 55.45 56.30 58.09 56.25 57.20

GFSGBSN_sfc_wetblb_168.txt.gz
Wetbulb
61.72 61.30 60.91 60.61 59.41 59.67 59.18 59.06 59.40 59.51 59.33 59.37 59.36 59.67 59.66 59.60 60.01 59.66 59.79 59.31 58.73 58.20 58.24 59.11 59.45 59.55 57.64 55.40 53.92 64.72 72.18 72.04 64.32 57.59 56.91 56.61 55.55 54.80 53.02 60.18 63.56 61.12 61.14 65.29 65.67 64.09 62.89
61.41 60.98 60.25 59.55 59.70 58.96 59.54 58.82 59.06 59.03 59.21 59.41 60.00 59.95 59.87 59.90 59.86 59.70 59.58 58.97 57.99 57.89 58.30 58.92 59.24 59.43 55.60 50.33 62.29 64.91 60.93 61.72 57.61 55.98 55.49 56.39 56.19 56.26 54.07 61.59 60.28 63.90 63.74 64.13 64.78 64.19 63.87
60.25 60.30 59.55 60.33 60.04 58.69 58.71 58.72 59.31 59.47 59.65 59.76 59.57 59.22 58.77 58.60 59.52 59.46 58.91 58.16 57.49 57.74 58.48 58.93 59.56 59.47 55.80 54.20 60.66 60.83 56.85 54.36 55.14 55.97 53.48 55.17 55.56 52.27 55.48 61.39 64.57 62.98 59.24 61.37 62.84 63.10 62.36
59.26 60.25 60.46 60.23 59.62 59.33 59.15 58.95 59.09 59.15 59.32 58.75 58.13 58.02 57.96 57.77 58.93 58.82 57.91 57.15 57.16 58.56 59.09 59.27 59.70 56.70 52.29 63.30 60.71 56.52 54.34 53.19 55.34 55.57 55.62 56.09 54.76 54.37 55.41 65.04 62.77 57.81 58.87 54.04 59.97 62.06 63.08
59.97 59.69 59.74 59.68 59.15 58.81 58.59 58.62 58.62 58.73 58.81 57.80 57.57 57.52 57.67 58.27 58.29 57.58 56.55 56.72 57.62 60.58 60.13 60.15 54.12 54.55 54.13 65.88 59.35 56.87 54.67 53.51 53.78 54.12 55.12 58.71 54.28 51.44 53.41 54.21 54.35 57.50 51.66 52.82 57.39 62.19 61.35
59.30 59.05 59.04 59.15 58.74 58.23 58.05 58.01 58.27 58.40 58.57 57.69 57.36 57.37 57.69 57.93 57.45 56.47 55.63 56.59 60.21 59.34 59.36 59.91 59.80 51.22 56.85 58.49 58.64 58.54 57.36 56.54 53.79 52.40 53.18 52.54 49.22 47.13 46.87 44.88 39.91 49.69 50.51 54.06 53.60 58.58 58.18
58.22 57.82 57.94 58.24 58.04 57.79 57.68 57.74 57.84 58.23 58.48 58.38 58.06 57.68 57.35 57.29 56.46 55.28 53.25 50.65 53.94 52.65 53.91 52.93 53.02 54.20 58.10 60.97 60.56 56.06 56.48 53.83 52.96 50.25 45.19 48.04 44.11 42.10 45.53 48.23 49.55 52.11 52.54 52.65 56.77 60.42 58.63
57.67 57.50 57.69 57.98 57.81 57.65 57.52 57.68 57.55 57.67 58.02 58.08 57.80 57.42 56.92 56.42 55.65 54.80 51.64 47.81 53.73 55.61 48.25 57.15 58.74 57.39 58.84 58.01 53.00 54.54 53.46 49.05 48.57 45.29 46.25 43.68 40.85 47.34 50.26 51.17 55.00 54.48 52.44 52.93 57.14 59.66 59.08
57.55 57.44 57.53 57.45 57.37 57.23 57.08 57.06 56.97 57.06 57.26 57.40 57.22 56.98 56.43 55.42 54.63 52.25 51.29 51.93 55.23 52.87 46.29 51.21 57.12 56.98 57.52 58.13 53.26 51.72 52.07 49.80 47.02 45.54 45.76 42.14 45.59 50.27 49.34 49.37 50.06 51.43 50.56 52.88 54.51 57.91 59.78
57.48 57.17 57.06 57.04 57.04 56.94 56.64 56.56 56.57 56.56 56.58 56.52 56.68 56.70 55.67 53.76 53.17 53.44 53.83 56.98 57.65 54.03 42.31 47.29 50.00 54.34 57.64 54.29 50.81 55.04 53.88 50.74 47.69 46.20 46.03 44.16 48.99 48.38 47.45 47.54 53.13 46.83 56.56 57.06 57.07 54.94 49.06
57.41 57.02 56.88 56.90 56.70 56.62 56.43 56.39 56.38 56.34 56.06 56.12 56.23 56.05 54.76 53.23 49.71 52.09 56.94 58.49 58.99 52.00 34.99 52.47 50.88 58.00 56.30 53.05 51.99 50.86 53.25 50.22 47.34 47.61 45.36 44.51 46.75 46.30 46.01 46.94 52.79 47.73 53.43 56.18 57.06 54.24 51.47
57.38 57.08 56.84 56.62 56.83 56.61 56.28 56.40 56.44 56.29 56.21 56.15 55.89 55.08 54.04 52.23 49.91 53.66 56.77 56.67 52.46 42.72 37.74 50.39 53.78 51.95 50.46 51.12 52.34 52.15 51.23 52.02 52.15 48.15 46.99 47.26 49.78 47.61 47.13 49.16 48.98 50.04 46.77 45.26 47.67 46.47 39.86
56.90 56.56 56.47 56.49 56.48 56.18 56.06 56.25 56.41 56.21 55.91 55.48 54.51 53.33 52.52 53.91 49.71 54.50 54.32 51.30 40.39 36.59 49.42 49.17 48.13 50.68 48.97 48.89 50.44 50.03 48.93 46.96 44.47 41.02 40.03 45.45 46.96 48.48 48.84 44.61 45.79 44.64 38.88 33.90 34.88 36.08 38.90
56.32 56.27 56.32 56.24 56.06 55.91 56.07 56.33 56.17 55.77 55.55 54.61 52.65 51.64 51.50 52.97 51.89 53.98 52.89 45.57 35.31 45.43 44.73 48.82 50.03 49.21 47.36 49.44 49.09 49.61 47.05 44.81 46.26 43.87 40.51 39.67 39.75 46.04 48.48 46.45 43.69 41.25 39.43 34.37 31.22 35.90 41.69
55.59 55.83 55.86 55.79 55.77 55.77 55.97 55.95 55.67 55.48 55.24 53.72 51.83 51.25 51.67 54.52 54.65 53.86 49.37 39.09 39.99 44.49 49.39 49.03 48.75 45.21 45.83 49.51 48.39 47.93 46.09 46.85 47.37 46.01 41.89 38.28 41.19 49.00 49.95 48.59 47.09 41.72 38.69 41.35 39.09 40.89 39.05
55.08 55.00 55.22 55.19 55.39 55.75 55.97 55.77 55.36 55.36 54.76 53.29 48.63 49.82 52.72 57.83 56.50 52.31 46.25 41.18 44.00 50.19 51.34 49.76 43.89 46.52 43.47 46.99 46.41 45.08 45.78 48.95 48.71 49.47 46.76 43.80 40.32 46.24 49.37 48.90 47.37 45.01 45.39 38.94 35.98 34.80 34.07
54.82 53.89 54.77 55.11 55.37 55.79 55.75 55.77 55.42 54.80 54.06 52.61 49.91 49.95 56.33 58.52 55.15 48.73 42.04 43.13 48.85 52.72 53.26 49.04 47.42 46.13 46.59 46.17 46.84 45.96 47.66 50.73 52.04 51.28 49.25 45.92 42.83 45.51 47.63 43.76 43.70 42.42 40.64 40.85 39.93 39.51 37.59
53.98 53.45 54.18 54.93 55.41 55.31 55.67 55.81 54.74 53.89 52.90 50.79 47.56 47.59 56.99 57.15 46.47 44.41 42.05 46.82 50.02 51.39 53.07 51.34 50.21 48.85 46.89 49.08 45.30 45.67 47.68 49.63 54.28 53.30 47.42 47.27 42.04 40.42 43.49 48.47 49.62 46.29 43.53 40.58 38.06 38.54 40.89
54.47 53.35 54.28 55.03 55.17 55.42 55.51 55.28 54.53 53.78 53.28 49.32 43.95 46.16 56.32 54.23 42.14 41.94 45.92 49.52 51.62 51.61 50.93 49.49 49.22 49.61 48.93 47.04 44.56 48.60 49.27 53.32 54.07 53.29 49.87 47.86 39.95 36.83 40.10 43.87 48.19 43.67 43.95 44.70 41.89 39.85 39.04
53.58 53.06 54.31 54.79 55.05 54.91 55.33 55.18 54.56 54.44 53.54 49.08 46.17 45.21 49.32 50.38 47.97 45.66 45.32 46.74 48.05 54.53 52.95 51.55 50.32 49.49 46.57 45.22 47.33 47.48 48.57 52.52 53.14 53.51 61.54 55.62 41.82 39.94 38.22 41.27 45.38 46.19 49.50 48.79 44.47 39.07 41.27
53.17 52.90 53.80 54.87 54.46 54.31 55.61 55.32 55.12 54.44 53.43 49.93 48.50 46.46 46.67 42.36 44.84 46.31 44.55 46.80 47.75 47.77 51.86 50.38 48.87 49.62 47.21 41.59 44.40 45.71 48.63 49.64 52.73 56.34 53.08 47.10 43.14 42.95 43.78 46.95 50.00 48.47 48.93 48.76 44.85 44.41 42.52
52.70 53.05 54.04 54.04 54.26 53.92 55.51 55.33 55.50 54.42 52.86 51.02 45.51 44.75 46.19 44.47 45.12 44.38 43.62 43.55 46.76 48.54 48.53 48.08 47.49 51.19 48.25 44.18 44.59 43.93 46.45 45.67 46.89 50.32 48.91 48.05 43.86 43.07 43.68 49.58 50.21 47.95 49.76 50.72 50.75 49.81 48.36
53.03 52.89 53.60 53.63 53.75 53.75 55.24 54.62 55.42 54.50 52.24 47.42 48.34 49.78 46.50 43.83 42.84 42.09 42.55 46.01 48.04 49.81 50.84 52.04 50.94 48.93 47.51 49.17 49.77 48.83 48.14 48.46 47.77 45.82 46.16 45.80 45.06 43.04 39.49 45.47 45.89 43.13 48.17 49.43 50.17 51.03 49.86
52.76 52.92 53.00 53.42 53.65 53.88 54.05 54.02 55.03 55.36 53.50 48.77 49.03 48.37 44.27 42.16 44.08 44.64 46.64 48.49 47.81 48.29 46.90 50.72 50.50 46.68 50.42 52.96 50.86 49.91 47.18 47.61 49.26 49.14 47.28 44.66 43.97 43.23 40.70 42.98 36.28 45.99 50.92 52.64 51.63 53.14 52.64
52.46 52.48 52.98 53.17 53.54 53.73 53.90 53.97 54.82 55.36 54.94 48.79 49.59 48.71 47.65 42.46 45.23 45.48 45.52 46.70 47.40 47.65 47.40 48.98 50.54 50.77 51.50 48.30 44.12 41.61 41.54 43.76 46.47 49.34 48.35 47.20 45.19 41.28 40.43 39.01 43.69 47.97 51.04 51.62 50.36 50.14 54.72
52.08 52.39 52.58 52.91 53.33 53.58 53.61 54.21 55.00 55.11 54.76 49.66 48.92 52.23 50.17 43.61 41.14 46.76 45.03 46.66 42.64 42.34 44.60 47.71 51.12 51.62 50.03 44.66 42.41 37.53 36.80 40.83 40.77 44.90 44.79 45.30 45.65 43.99 40.69 38.01 36.66 46.13 53.10 55.44 53.61 45.45 55.34
51.93 52.02 52.10 52.73 53.39 53.42 53.80 53.99 54.29 54.71 54.57 51.23 49.05 51.52 49.80 43.82 45.14 45.07 42.74 42.83 46.41 43.89 42.55 45.11 46.77 47.23 48.96 43.76 39.73 37.78 38.31 44.29 39.37 38.75 38.91 40.57 42.58 42.29 40.02 38.72 43.63 50.20 54.70 54.59 44.42 46.18 55.98
51.66 51.68 51.79 52.10 52.91 53.33 53.63 53.59 53.86 54.18 54.74 51.77 48.95 51.41 50.50 45.72 46.63 48.40 48.59 44.20 44.35 43.20 40.88 44.25 44.52 45.07 43.94 43.07 44.63 43.74 40.49 42.38 41.16 42.10 40.31 40.27 39.98 39.60 40.41 38.64 38.17 53.60 54.57 47.58 49.98 53.41 56.92
51.37 51.60 51.54 51.70 52.31 52.89 53.39 53.63 53.43 53.91 54.76 53.96 46.40 50.49 50.22 45.81 45.57 50.53 50.47 50.86 49.28 48.57 44.36 43.46 43.47 42.83 45.29 42.13 44.04 42.98 41.46 43.48 41.96 39.83 48.17 43.50 45.52 43.07 44.06 43.05 51.35 53.34 52.38 53.02 54.37 52.99 55.26

GFSGBSN_sfc_wetblb_171.txt.gz
Wetbulb
60.74 59.76 59.83 59.54 59.55 58.85 59.05 59.62 58.93 59.26 59.90 60.15 59.76 59.11 58.86 58.74 58.76 58.93 59.31 59.43 58.21 57.65 57.39 57.66 59.21 59.55 56.38 52.86 52.24 64.47 73.46 70.88 67.12 56.31 54.16 55.38 54.91 53.64 49.71 60.97 63.04 60.16 61.04 64.87 65.04 63.97 62.97
59.57 60.18 60.26 60.04 59.89 59.69 59.33 59.18 59.52 59.58 59.71 59.22 58.22 58.10 57.97 58.10 58.05 58.53 59.36 58.90 57.93 57.73 57.95 58.50 59.21 59.40 54.66 45.77 59.83 65.47 64.90 60.79 56.11 54.25 54.25 56.34 55.82 54.56 56.21 60.66 59.64 62.93 63.65 63.82 62.77 62.38 62.09
59.74 59.81 59.35 59.36 59.13 59.07 59.03 58.96 59.10 59.11 59.24 58.11 57.82 57.57 57.51 57.57 58.26 58.86 58.73 58.11 57.60 57.78 58.39 58.93 59.72 59.11 53.91 51.95 59.63 60.43 57.26 53.95 53.36 53.93 52.12 55.51 55.50 50.91 60.96 59.29 63.26 62.76 60.05 60.96 62.68 63.23 61.86
59.19 58.81 58.91 58.83 58.92 58.61 58.43 58.43 58.63 58.74 58.75 57.70 57.70 57.61 57.78 58.23 58.68 58.54 57.81 57.28 57.43 58.06 59.35 59.54 60.15 55.50 50.82 59.78 58.87 55.76 53.62 51.51 53.16 53.66 53.67 54.34 53.68 51.00 59.32 63.44 60.46 58.76 57.44 51.72 60.30 61.13 61.67
58.14 58.36 58.43 58.45 58.34 58.19 57.96 58.00 58.22 58.19 58.31 58.39 58.40 58.28 58.30 58.10 57.89 57.34 56.55 56.49 57.90 60.46 60.10 60.27 53.39 52.60 52.72 64.30 58.42 54.96 53.94 52.30 52.42 51.99 53.43 58.03 52.67 50.16 57.78 55.40 52.29 55.55 50.02 52.29 56.24 62.29 60.73
57.72 57.93 57.92 57.55 57.90 57.82 57.54 57.65 57.77 57.87 57.95 57.94 58.06 57.84 57.74 57.60 57.08 56.07 55.52 56.00 60.45 59.57 59.38 59.33 59.13 49.47 53.50 56.37 57.42 55.33 53.23 53.57 51.86 51.15 51.55 50.64 47.71 45.36 44.89 43.87 39.73 48.10 49.74 53.50 52.77 57.69 57.69
57.36 57.43 57.37 57.36 57.50 57.46 57.28 57.30 57.31 57.45 57.51 57.43 57.42 57.28 57.14 56.94 56.21 55.20 53.02 50.18 50.01 50.40 53.92 51.20 51.80 51.37 55.34 59.05 59.69 55.49 56.05 53.33 51.96 49.44 44.60 46.37 43.43 41.38 44.87 46.62 47.11 47.68 51.28 52.01 56.74 59.10 57.95
56.85 56.81 56.97 56.94 57.44 57.30 57.28 56.97 56.91 57.05 57.21 57.12 57.00 56.72 56.64 56.27 55.60 54.50 51.49 45.29 49.12 50.47 46.09 53.87 56.02 55.58 56.75 56.71 54.38 53.62 53.97 49.31 48.02 44.60 44.97 42.97 40.51 45.76 47.83 48.00 47.89 51.08 51.14 52.22 56.66 59.61 58.25
56.95 56.78 56.87 57.10 57.14 57.01 57.07 56.81 56.84 56.74 56.80 56.70 56.61 56.43 55.93 55.52 54.52 51.68 50.50 50.83 53.55 53.14 45.34 49.53 53.59 54.71 55.41 56.88 54.29 51.98 51.71 48.37 46.02 43.91 43.76 41.00 44.61 47.93 46.81 45.72 45.44 49.74 50.50 51.90 53.88 57.33 59.43
57.07 56.99 56.79 56.67 56.81 56.75 56.62 56.60 56.76 56.86 56.69 56.49 56.47 56.31 55.44 53.69 51.21 51.29 52.04 55.48 55.08 53.17 40.83 45.46 47.96 54.14 55.96 55.70 52.31 54.78 51.61 49.81 46.44 44.55 44.63 42.99 47.13 47.01 45.12 44.84 45.97 40.39 53.29 55.42 56.52 53.33 47.16
56.90 56.57 56.45 56.55 56.46 56.24 56.32 56.33 56.43 56.47 56.31 56.23 56.19 55.73 54.42 53.14 47.71 50.92 54.27 53.74 54.65 50.37 33.66 48.71 49.16 56.09 54.70 51.74 50.42 50.20 52.22 49.17 45.48 45.72 44.52 43.80 44.39 44.86 43.74 45.04 50.35 47.52 55.57 55.69 56.58 52.85 50.02
56.24 56.17 56.33 56.49 56.38 56.14 55.93 55.93 56.13 55.93 55.83 55.87 55.56 54.69 53.82 50.80 48.32 51.92 54.14 52.95 50.01 41.94 35.87 47.95 51.64 50.44 50.88 50.60 50.95 49.43 49.33 50.39 49.41 46.10 44.81 45.60 48.57 46.98 46.27 47.17 51.47 51.35 45.27 44.56 47.79 46.40 40.02
55.88 55.61 55.75 55.82 55.99 55.79 55.87 55.87 55.83 55.50 55.28 54.94 54.05 53.05 52.13 53.14 47.96 51.87 52.29 48.87 39.79 36.08 46.73 46.40 46.08 48.29 47.13 47.45 49.06 47.45 46.82 44.90 43.70 39.05 38.17 43.86 46.06 46.47 47.72 43.44 44.30 42.16 37.70 33.13 32.53 34.49 38.03
55.36 55.42 55.47 55.53 55.41 55.57 55.69 55.59 55.53 55.20 54.96 54.11 52.30 51.24 51.01 52.29 51.23 53.00 50.74 45.34 33.78 43.15 43.00 47.65 48.73 47.33 46.83 47.83 47.54 47.74 45.14 42.87 45.14 42.25 38.78 38.76 39.10 45.33 47.37 45.65 43.23 40.12 38.81 33.87 30.16 31.75 39.89
55.05 54.36 54.81 55.25 55.30 55.51 55.37 55.46 55.24 54.86 54.58 53.16 51.35 49.52 49.54 52.31 53.17 51.63 48.03 37.52 38.14 42.01 47.70 47.83 48.02 43.47 43.50 46.99 46.52 45.54 44.63 45.05 45.69 44.55 41.35 37.89 40.31 46.97 48.34 47.68 46.39 40.15 36.62 39.66 37.91 37.58 37.44
55.27 53.91 54.38 55.02 55.22 55.24 55.43 55.47 55.06 55.14 54.03 53.02 47.13 48.71 51.45 54.42 54.18 51.01 45.66 39.48 42.58 47.63 49.69 48.19 42.98 44.49 41.61 44.56 44.10 44.30 44.95 47.66 47.47 47.24 44.30 42.98 39.52 44.62 48.28 46.83 45.54 43.81 43.02 37.05 34.70 31.83 31.11
54.56 53.69 54.16 54.94 55.08 55.06 55.43 55.57 55.12 54.72 53.38 52.40 48.48 49.21 53.72 54.97 52.33 47.89 40.63 41.12 47.03 50.93 51.41 47.69 44.90 44.89 44.96 44.10 44.61 44.18 46.43 49.85 50.16 49.01 46.59 42.08 40.91 44.03 45.33 42.33 42.33 41.26 38.88 38.13 37.32 35.55 32.95
54.26 53.19 54.38 54.86 54.98 54.84 55.31 55.61 54.76 54.04 52.46 50.50 44.59 47.03 54.93 53.02 45.90 41.36 40.77 44.19 48.31 49.86 51.42 50.22 48.33 47.70 46.06 46.43 43.38 43.46 45.64 49.02 52.10 50.32 44.59 44.75 40.64 39.20 42.61 45.78 46.23 43.93 41.51 39.79 35.87 35.23 37.27
53.30 53.16 54.37 55.13 54.57 54.04 55.33 55.10 54.36 53.62 52.92 50.64 42.36 44.62 53.47 52.42 41.13 40.31 44.38 47.96 49.43 49.41 49.16 48.28 47.52 47.99 47.63 45.38 42.08 45.60 47.68 52.21 52.30 50.22 46.45 45.32 39.41 37.04 39.66 41.56 44.30 41.96 41.81 41.56 38.62 37.22 36.52
53.33 53.01 54.41 54.97 53.80 53.82 55.29 54.71 53.93 53.83 52.79 49.39 46.42 44.35 47.03 47.39 45.07 42.88 42.59 44.50 45.77 51.57 49.90 49.72 48.62 48.23 45.81 42.90 43.84 43.97 46.20 51.07 52.28 53.06 60.98 51.55 38.27 40.62 41.31 41.48 43.11 44.28 47.44 45.77 42.96 38.28 39.39
53.42 53.48 53.87 54.12 54.58 54.37 55.00 54.41 54.11 53.79 52.88 49.17 47.15 43.34 44.10 41.51 43.17 43.04 42.31 44.61 45.54 44.82 49.11 49.13 46.90 48.68 46.15 39.82 42.42 43.07 46.43 47.86 51.74 54.73 51.45 45.86 41.74 40.80 42.07 44.29 47.76 46.62 47.69 47.51 43.52 43.55 42.41
53.17 53.21 53.71 53.67 53.93 54.20 53.79 53.86 54.25 53.98 52.27 47.73 44.22 43.36 45.17 43.03 42.95 42.51 41.32 41.28 44.68 46.09 46.67 46.11 45.93 48.34 47.38 42.76 43.12 42.21 43.88 42.59 44.19 49.21 47.58 46.71 43.60 41.07 42.61 45.68 48.41 47.14 47.86 47.80 48.09 47.53 45.99
52.96 53.15 53.19 53.61 53.83 53.98 53.51 53.56 54.29 53.77 51.21 45.91 47.04 47.10 45.33 42.52 41.45 39.66 40.46 43.82 46.08 47.54 48.42 50.25 48.52 46.22 45.80 47.68 49.09 48.76 47.47 46.75 46.67 44.96 44.76 45.33 43.54 41.81 38.25 44.39 44.97 41.76 46.52 47.64 48.16 48.76 48.20
52.83 52.77 53.12 53.34 53.58 53.87 53.96 53.84 54.74 54.39 53.29 47.33 46.77 46.05 43.06 40.18 42.94 43.39 44.13 45.64 46.55 46.34 44.74 48.30 48.65 45.30 49.22 52.13 49.79 46.59 45.31 45.42 46.21 46.44 46.21 44.06 42.82 42.21 40.32 40.69 35.85 44.77 48.45 50.19 48.96 51.25 50.98
52.52 52.62 52.85 52.96 53.32 53.73 53.77 54.32 54.93 54.61 54.19 47.82 47.58 46.47 43.90 39.23 43.50 43.36 44.18 44.68 45.60 45.26 44.95 47.28 48.81 49.60 51.19 46.24 41.93 39.65 40.27 41.38 44.63 47.39 45.36 45.36 43.28 39.95 40.80 38.65 42.02 46.52 49.87 50.07 48.72 48.11 52.82
52.10 52.31 52.45 52.44 52.90 53.61 53.84 53.93 54.32 54.62 53.95 48.36 47.04 48.30 45.76 41.25 39.61 46.03 43.55 44.78 40.96 40.60 42.74 45.63 49.73 49.98 47.51 42.51 40.66 36.07 35.92 39.30 40.40 43.02 42.98 42.36 42.45 41.75 39.03 37.53 36.83 44.91 51.03 53.56 50.72 43.84 53.07
51.81 52.00 52.18 52.18 52.64 53.16 53.48 53.90 53.80 53.98 54.12 50.65 47.33 50.07 45.65 44.21 43.61 42.93 41.98 41.54 44.20 42.08 40.19 42.75 43.93 44.18 46.96 42.01 38.98 36.63 37.13 42.53 37.96 37.85 40.76 39.06 38.79 38.53 37.91 37.34 41.78 48.85 53.30 53.44 43.65 44.05 51.75
51.58 51.74 51.77 51.85 52.10 52.77 53.21 53.75 53.60 53.35 54.13 50.91 46.77 49.36 45.95 43.32 43.33 46.29 46.42 43.80 43.28 41.84 38.41 40.86 41.08 42.48 42.24 39.55 41.30 40.40 39.75 41.65 40.60 41.06 38.98 39.14 39.36 37.43 37.31 36.26 36.85 52.66 52.84 46.81 47.59 50.27 52.54
51.33 51.52 51.41 51.54 51.70 52.39 52.95 53.48 53.42 53.27 53.69 52.17 46.68 48.27 48.78 44.69 43.18 46.99 48.77 49.67 48.47 47.46 43.33 41.14 40.31 40.58 42.80 40.31 41.70 40.36 39.83 43.60 43.27 39.26 45.61 41.59 42.92 42.44 42.32 40.57 49.28 51.31 50.42 52.14 51.49 50.46 53.48

GFSGBSN_sfc_wetblb_174.txt.gz
Wetbulb
59.70 59.62 59.83 59.44 59.47 59.44 59.04 58.97 59.29 59.52 59.13 58.62 58.02 57.78 57.60 57.90 57.92 58.09 58.90 58.79 57.98 57.48 57.36 57.76 58.66 59.49 54.86 49.86 50.94 61.29 73.65 72.83 64.66 55.47 52.48 55.30 54.13 52.48 48.89 59.17 61.53 60.33 61.10 64.53 64.06 63.54 62.69
59.08 59.05 59.05 58.82 58.72 58.52 58.40 58.44 58.70 59.12 58.88 58.02 57.67 57.41 57.40 57.87 58.27 58.73 59.20 58.41 57.37 57.32 58.13 58.65 59.14 59.31 53.16 43.97 57.32 65.92 65.50 62.00 57.66 52.54 51.98 55.66 55.43 54.19 60.26 59.96 58.66 62.13 63.58 61.99 62.47 61.90 62.41
58.56 58.49 58.45 58.38 58.09 57.99 57.98 58.02 58.26 58.40 58.44 58.42 58.74 58.91 58.77 58.85 58.62 58.71 58.35 57.99 57.24 57.89 58.19 59.12 59.60 58.63 50.98 50.24 59.72 61.37 58.84 55.34 53.15 52.43 51.57 54.62 56.00 50.42 60.96 58.60 61.75 61.52 58.30 60.35 62.30 61.59 60.45
57.98 58.05 58.09 57.92 57.85 57.97 57.78 57.53 57.79 58.04 58.25 58.25 58.31 58.51 58.77 58.28 58.13 57.94 57.44 56.65 57.23 58.12 58.88 59.47 60.28 54.33 49.09 57.50 58.69 55.96 52.62 50.33 52.33 51.58 51.63 53.47 52.83 51.43 59.87 61.62 59.89 58.37 56.08 51.22 59.53 61.75 61.74
57.68 57.71 57.77 57.81 57.98 57.74 57.65 57.60 57.52 57.61 57.69 57.73 57.77 58.03 58.05 57.79 57.55 57.11 56.25 56.25 58.62 60.16 59.89 60.58 52.65 51.51 50.80 62.41 55.29 54.19 52.60 51.18 50.38 50.90 52.63 57.22 51.41 53.43 58.23 54.16 49.92 53.66 47.55 50.55 54.21 61.53 60.25
57.21 57.05 57.21 57.29 57.35 57.58 57.51 57.55 57.57 57.45 57.38 57.50 57.44 57.44 57.22 57.22 56.27 55.52 54.91 55.94 61.52 59.37 58.99 59.25 58.55 48.55 52.41 53.85 57.72 53.28 51.89 52.94 50.93 50.70 50.22 48.99 46.42 44.55 44.94 46.38 39.93 43.54 47.62 52.05 50.81 57.67 58.28
57.01 56.78 56.81 57.00 57.00 57.39 57.43 57.31 57.34 57.52 57.54 57.54 57.38 56.93 56.89 56.09 55.34 54.37 52.39 52.33 47.88 47.95 53.36 50.74 50.57 49.71 53.22 56.32 57.02 54.07 52.86 51.65 50.44 48.73 43.63 44.73 43.08 40.90 44.83 47.47 46.53 47.96 49.68 49.74 54.80 58.70 56.25
56.84 56.54 56.51 56.47 56.66 56.93 57.13 57.04 56.98 57.11 57.32 57.15 56.83 56.71 55.93 55.24 54.89 53.74 50.64 43.88 48.35 51.49 46.85 52.33 54.69 53.84 55.43 54.98 53.11 52.81 53.94 49.77 46.83 43.74 43.73 42.68 40.02 45.37 46.81 46.35 45.60 45.01 46.96 49.47 55.49 58.65 56.75
56.59 56.19 56.32 56.45 56.75 56.81 56.72 56.58 56.61 56.67 56.59 56.23 56.57 56.33 54.94 54.20 54.07 50.90 49.58 50.18 53.41 50.95 44.09 48.67 51.03 52.35 53.11 55.47 52.48 52.81 52.65 48.38 45.24 42.93 42.35 40.34 44.28 46.95 46.28 44.36 43.39 46.00 47.83 50.96 51.96 56.90 58.48
56.47 56.25 56.61 56.50 56.66 56.48 56.40 56.39 56.41 56.43 56.23 56.21 56.31 55.71 54.47 53.29 50.20 49.58 50.82 53.65 53.47 52.09 39.07 43.37 46.14 52.51 54.37 54.39 50.94 55.98 52.32 49.13 45.05 44.46 43.19 42.20 45.75 46.11 43.82 43.41 43.80 38.40 50.71 53.59 55.05 52.35 45.42
56.00 55.53 55.29 56.00 56.06 56.11 56.07 56.05 55.91 55.93 55.74 55.89 55.89 54.90 53.53 52.55 46.45 48.75 52.32 51.43 51.48 47.79 33.10 46.65 47.91 55.31 53.44 51.47 50.67 51.26 50.53 48.12 44.41 44.32 43.56 42.84 43.37 43.14 42.31 44.02 45.65 43.46 49.91 51.52 55.50 50.82 47.84
55.40 54.92 55.04 55.70 55.98 55.75 55.71 55.62 55.66 55.50 55.56 55.60 55.24 53.71 53.06 50.20 47.51 50.58 51.93 50.80 48.73 39.92 34.51 45.96 49.94 49.37 48.44 48.54 48.88 47.81 48.28 48.95 47.97 45.09 43.06 44.25 46.53 45.85 45.81 46.68 48.54 48.74 46.12 42.96 44.87 46.18 41.63
55.35 54.55 54.66 55.29 55.59 55.60 55.46 55.42 55.46 55.38 55.18 54.61 53.52 52.24 51.22 52.04 47.56 50.43 51.00 47.51 39.36 34.58 44.84 44.57 44.47 47.12 46.47 47.18 48.24 45.76 45.70 44.07 41.84 37.98 37.88 42.73 44.27 45.76 46.68 42.14 43.50 41.65 37.99 31.50 34.29 39.49 39.77
55.31 54.26 54.46 55.27 55.38 55.42 55.44 55.46 55.32 55.38 54.53 53.45 51.90 50.72 50.98 51.85 50.46 51.04 49.08 44.44 32.49 40.62 41.22 46.68 47.06 45.20 45.78 46.96 46.87 45.89 43.74 41.75 43.26 41.30 37.63 37.59 38.01 44.32 46.42 45.29 42.43 39.25 38.39 33.35 29.17 29.07 35.32
55.35 54.00 54.03 55.24 55.32 55.32 55.30 55.32 55.16 54.83 53.84 52.95 51.08 48.87 48.23 50.97 52.14 50.43 47.05 37.68 38.46 39.59 45.67 46.64 46.58 41.97 41.96 45.42 45.24 44.07 42.82 42.17 44.50 44.15 41.36 36.53 39.22 45.27 46.12 45.05 45.30 38.56 36.49 38.65 35.40 35.67 36.41
54.62 53.77 54.24 55.26 55.26 54.78 55.10 55.36 55.10 54.47 53.45 52.49 46.37 47.83 50.99 52.98 52.44 49.88 44.01 38.41 40.52 45.58 48.40 47.05 40.75 43.26 40.61 42.75 42.77 42.53 42.64 45.76 45.61 46.22 46.91 42.91 39.52 43.65 46.65 45.52 43.89 42.05 41.95 36.43 33.73 31.12 30.36
53.73 53.44 54.42 55.17 54.56 54.23 55.10 55.26 54.67 54.20 53.05 52.15 46.04 48.48 52.52 52.76 50.01 47.10 40.14 39.40 45.10 49.45 49.92 46.13 43.56 43.43 43.44 42.89 43.20 41.79 43.87 47.35 48.02 46.21 46.01 42.45 41.60 43.68 44.37 42.07 41.04 39.94 37.26 36.07 35.62 33.72 31.24
54.12 53.39 54.50 54.39 53.75 54.62 55.10 54.89 54.16 53.36 52.09 49.56 43.13 45.98 53.20 51.32 45.48 39.86 40.12 42.41 47.17 48.09 50.07 48.09 46.91 46.30 44.71 44.69 42.14 42.95 44.31 46.62 50.22 47.13 43.46 43.83 40.37 41.41 42.77 43.93 45.17 42.02 40.05 37.97 35.10 33.83 33.91
53.77 54.20 54.42 54.60 54.80 55.00 54.84 54.30 53.33 52.89 52.33 49.27 43.94 44.51 52.19 50.53 40.78 39.80 43.48 46.48 47.80 48.16 47.29 47.66 46.02 46.27 45.79 43.19 40.86 44.26 45.68 50.10 51.44 48.50 44.90 44.35 39.70 36.80 40.36 41.19 42.37 41.64 40.17 39.64 37.41 36.40 36.26
53.74 53.55 53.72 54.50 54.93 54.99 54.09 53.87 53.18 52.89 52.58 47.69 46.58 43.97 46.38 46.07 43.30 41.68 40.97 42.94 44.44 49.62 47.61 47.81 46.64 47.22 45.58 41.95 42.52 42.36 45.64 49.84 51.47 51.06 59.26 51.42 38.75 39.94 40.15 42.58 43.73 41.89 42.65 40.94 40.43 36.32 35.95
53.64 53.83 53.83 54.06 54.43 54.22 53.60 53.77 53.61 52.99 52.35 48.16 45.19 41.59 43.12 40.75 42.33 41.56 40.27 42.86 44.02 43.75 47.72 47.69 46.11 46.40 43.61 39.52 41.94 41.99 45.08 46.74 49.72 53.46 48.88 44.79 40.63 39.79 42.42 44.35 46.42 45.84 45.48 44.18 42.37 41.78 42.22
53.27 53.53 53.43 53.54 54.22 54.04 54.02 54.31 54.14 53.17 51.76 46.65 43.66 42.51 43.83 41.26 41.49 40.98 40.49 39.76 43.12 44.62 44.62 44.28 43.80 46.72 45.54 41.06 41.57 40.87 43.58 41.94 44.21 47.68 45.46 46.37 42.31 41.58 43.34 46.17 44.93 45.93 47.46 46.73 45.85 45.72 45.83
53.14 53.12 53.33 53.52 53.38 54.39 54.76 54.61 54.43 53.18 50.62 45.40 45.51 45.50 44.24 40.58 40.62 37.71 38.83 41.99 44.69 46.14 46.87 48.34 47.08 44.94 43.76 45.28 47.23 47.64 46.60 46.56 45.00 43.67 44.18 42.50 42.40 39.87 38.45 45.75 46.45 42.11 45.95 46.29 47.18 47.40 47.40
52.97 52.85 53.14 53.12 53.10 53.28 54.62 54.80 54.59 53.84 52.57 48.23 44.84 44.33 41.71 37.53 41.26 42.24 44.04 44.17 43.89 45.49 43.74 46.46 46.97 43.70 47.27 50.47 48.68 44.87 42.85 43.84 44.14 45.15 44.37 42.88 40.90 40.92 39.22 40.23 35.59 44.99 47.97 49.62 49.69 50.21 49.64
52.66 52.49 52.83 52.81 52.89 52.91 53.20 54.47 54.72 54.28 53.70 48.87 45.83 44.98 41.95 37.07 41.58 42.19 43.06 43.47 44.08 43.91 43.44 45.40 47.15 47.86 48.56 45.03 40.95 38.81 38.67 39.61 42.99 45.29 43.43 44.33 41.53 39.15 39.05 36.92 41.56 46.20 49.62 47.89 47.31 47.22 51.80
52.16 52.26 52.37 52.54 52.72 52.61 52.93 53.50 54.30 54.04 53.66 47.08 45.78 46.12 43.85 42.87 38.05 44.85 42.79 43.35 39.54 38.40 41.11 43.85 47.54 46.58 45.07 41.51 39.27 34.90 35.05 37.92 38.75 41.38 40.44 41.77 41.66 42.70 37.49 36.17 36.36 44.99 51.87 53.95 50.81 43.54 51.65
51.78 51.99 52.12 52.18 52.31 52.58 52.78 53.54 53.91 53.61 53.53 49.84 45.90 46.11 44.10 43.12 41.90 41.26 40.92 40.54 43.12 40.56 39.06 40.49 41.38 41.31 44.25 40.02 37.34 35.63 36.17 41.08 36.98 37.45 38.15 38.35 38.63 39.14 38.56 37.55 40.91 48.02 52.16 53.28 43.78 44.22 51.62
51.47 51.76 51.87 51.95 52.08 52.28 52.81 53.51 53.65 53.52 53.45 49.52 46.09 46.68 44.14 40.34 42.42 44.80 45.80 42.28 42.19 41.25 38.55 39.72 39.01 40.30 40.49 37.48 39.24 38.84 37.96 40.33 39.96 39.85 38.16 38.40 36.81 36.50 37.63 36.51 36.27 51.57 51.81 47.09 47.20 50.62 53.25
51.38 51.60 51.70 51.64 51.72 51.85 52.35 52.95 53.31 53.34 53.16 50.28 42.59 46.28 46.88 42.22 41.68 45.07 47.42 48.39 47.11 46.18 42.02 39.61 38.25 38.90 41.32 39.39 40.55 38.74 37.96 39.99 38.86 37.69 43.63 39.86 41.27 40.04 40.63 41.82 48.02 51.38 50.41 51.92 51.82 51.13 52.68